User: anonymous   Login
Location: Caltech
(34.1382°N, 118.1253°W)
Time: 22:24:52
(UTC-08:00)
Language:

Cosmos 1937 Rocket - Orbit

View from above orbital plane
View from above orbital plane
View from above satellite
View from above satellite

Ground track
Ground track

The orbit data is extracted from the following two-line orbital elements,

1 19039U 88029B   14328.85177153  .00000179  00000-0  67501-4 0  1884
2 19039 074.0485 221.5866 0025011 267.1426 159.5264 14.38091629396383
Epoch (UTC): 24 November 2014 20:26:33
Eccentricity: 0.0025011
inclination: 74.0485°
perigee height: 747 km
apogee height: 782 km
right ascension of ascending node: 221.5866°
argument of perigee: 267.1426°
revolutions per day: 14.38091629
mean anomaly at epoch: 159.5264°
orbit number at epoch: 39638

The dashed part of the orbit path shows where the satellite is in the earth's shadow,  

DLR